Location: Baix
(44.7118°N, 4.7648°E)
Time: 23:52:02
(UTC+00:00)

Vanguard 1 Rocket - Pass Details

Date: 09 October 2022
Orbit: 650 x 4225 km, 34.3° (Epoch: 05 December)

Event Time Altitude Azimuth Distance (km) Brightness Sun altitude
Rises 18:37:20 0° 247° (WSW) 8,463 13.4 -16.8°
Reaches altitude 10° 18:43:35 10° 244° (WSW) 7,329 12.8 -17.9°
Maximum altitude 19:06:31 57° 175° (S) 3,418 10.1 -21.9°
Enters shadow 19:14:39 31° 113° (ESE) 3,599 9.8 -23.3°
